This demonstration page uses our WeatherBlox Daily Observations layout. Learn more.

Left ArrowRight Arrow

53.62937, 11.41316

Hourly Observations for May 24, 2016

Temp ( °F °C ) Dew Point ( °F °C ) Humidity (%) Winds ( mph kmh ) Pressure ( in mb ) Visibility ( mi km ) Precip ( " mm )
6:20 am 06:20 Mostly Cloudy 57 14 55 13 94 94 NW 5 7 29.77 1008 30 48 N/A
6:50 am 06:50 Mostly Cloudy 57 14 55 13 94 94 NW 6 9 29.80 1009 30 48 N/A
7:20 am 07:20 Mostly Cloudy 57 14 55 13 94 94 WNW 5 7 29.80 1009 6 9 N/A
7:50 am 07:50 Mostly Cloudy 59 15 57 14 94 94 NW 5 7 29.80 1009 30 48 N/A
8:20 am 08:20 Mostly Cloudy 59 15 55 13 88 88 NW 7 11 29.80 1009 30 48 N/A
8:50 am 08:50 Mostly Cloudy 59 15 55 13 88 88 NW 9 15 29.80 1009 30 48 N/A
9:20 am 09:20 Mostly Cloudy 57 14 55 13 94 94 NW 8 13 29.80 1009 30 48 N/A
9:50 am 09:50 Mostly Cloudy 57 14 55 13 94 94 NNW 10 17 29.83 1010 30 48 N/A
10:20 am 10:20 Mostly Cloudy 57 14 55 13 94 94 NW 10 17 29.83 1010 6 9 N/A
10:50 am 10:50 Mostly Cloudy 57 14 55 13 94 94 NW 9 15 29.83 1010 4 6 N/A
11:20 am 11:20 Mostly Cloudy 55 13 55 13 100 100 NW 10 17 29.83 1010 4 6 N/A
11:50 am 11:50 Mostly Cloudy 55 13 54 12 94 94 NW 9 15 29.83 1010 4 6 N/A
12:20 pm 12:20 Cloudy with Mist and Fog 55 13 54 12 94 94 NW 8 13 29.85 1011 3 5 N/A
12:50 pm 12:50 Cloudy with Mist and Fog 55 13 54 12 94 94 NW 8 13 29.85 1011 2 4 N/A
1:20 pm 13:20 Cloudy 55 13 54 12 94 94 NW 8 13 29.85 1011 4 6 N/A
1:50 pm 13:50 Cloudy 57 14 54 12 88 88 NW 9 15 29.85 1011 6 9 N/A
2:20 pm 14:20 Cloudy 57 14 54 12 88 88 NW 7 11 29.85 1011 5 8 N/A
2:50 pm 14:50 Cloudy 57 14 54 12 88 88 WNW 9 15 29.85 1011 6 9 N/A
3:20 pm 15:20 Cloudy 59 15 54 12 82 82 NW 8 13 29.85 1011 30 48 N/A
3:50 pm 15:50 Mostly Cloudy 59 15 54 12 82 82 WNW 9 15 29.85 1011 30 48 N/A
4:20 pm 16:20 Cloudy 59 15 54 12 82 82 WNW 6 9 29.85 1011 30 48 N/A
4:50 pm 16:50 Mostly Cloudy 57 14 55 13 94 94 W 8 13 29.85 1011 30 48 N/A
5:20 pm 17:20 Mostly Cloudy 59 15 55 13 88 88 NW 7 11 29.85 1011 30 48 N/A
5:50 pm 17:50 Mostly Cloudy 57 14 54 12 88 88 W 8 13 29.85 1011 30 48 N/A
6:20 pm 18:20 Mostly Cloudy 59 15 54 12 82 82 WNW 7 11 29.85 1011 30 48 N/A
6:50 pm 18:50 Mostly Cloudy 59 15 55 13 88 88 WNW 6 9 29.85 1011 30 48 N/A

Powered by AerisWeather